TimeCDT,TemperatureF,Dew PointF,Humidity,Sea Level PressureIn,VisibilityMPH,Wind Direction,Wind SpeedMPH,Gust SpeedMPH,PrecipitationIn,Events,Conditions,WindDirDegrees,DateUTC
12:54 AM,55.0,53.1,93,29.98,10.0,WNW,10.4,-,0.00,,Overcast,300,2013-05-06 05:54:00
1:39 AM,54.0,52.0,93,29.98,7.0,WNW,10.4,-,N/A,,Mostly Cloudy,300,2013-05-06 06:39:00
1:51 AM,53.6,53.6,100,29.98,6.0,NW,9.2,-,N/A,,Mostly Cloudy,310,2013-05-06 06:51:00
1:54 AM,54.0,53.1,97,29.97,6.0,NW,11.5,-,N/A,,Mostly Cloudy,310,2013-05-06 06:54:00
2:54 AM,55.0,53.1,93,29.96,5.0,NW,11.5,-,N/A,,Overcast,310,2013-05-06 07:54:00
3:54 AM,55.0,54.0,96,29.96,3.0,NW,12.7,-,N/A,,Overcast,320,2013-05-06 08:54:00
4:54 AM,55.0,54.0,96,29.97,4.0,NNW,9.2,-,N/A,,Overcast,340,2013-05-06 09:54:00
5:54 AM,55.0,53.1,93,29.99,4.0,North,8.1,-,N/A,,Overcast,350,2013-05-06 10:54:00
6:54 AM,55.0,53.1,93,30.01,3.0,North,10.4,-,N/A,,Overcast,360,2013-05-06 11:54:00
7:54 AM,55.9,53.1,90,30.03,5.0,North,11.5,-,N/A,,Overcast,360,2013-05-06 12:54:00
8:54 AM,57.9,54.0,87,30.04,7.0,North,8.1,-,N/A,,Mostly Cloudy,360,2013-05-06 13:54:00
9:54 AM,61.0,54.0,78,30.04,10.0,North,9.2,-,N/A,,Clear,360,2013-05-06 14:54:00
10:54 AM,64.0,55.0,73,30.04,10.0,NW,9.2,-,N/A,,Scattered Clouds,310,2013-05-06 15:54:00
11:54 AM,66.9,55.0,66,30.03,10.0,NNW,8.1,-,N/A,,Partly Cloudy,340,2013-05-06 16:54:00
12:54 PM,70.0,52.0,53,30.01,10.0,North,12.7,-,N/A,,Partly Cloudy,10,2013-05-06 17:54:00
1:54 PM,71.1,52.0,51,30.01,10.0,NNE,11.5,20.7,N/A,,Mostly Cloudy,30,2013-05-06 18:54:00
2:54 PM,72.0,52.0,49,29.99,10.0,North,13.8,-,N/A,,Scattered Clouds,10,2013-05-06 19:54:00
3:54 PM,71.1,52.0,51,29.98,10.0,North,9.2,-,N/A,,Mostly Cloudy,10,2013-05-06 20:54:00
4:54 PM,70.0,52.0,53,29.97,10.0,NNE,8.1,-,N/A,,Overcast,20,2013-05-06 21:54:00
5:54 PM,68.0,53.1,59,29.98,10.0,North,6.9,-,N/A,,Overcast,350,2013-05-06 22:54:00
6:54 PM,66.9,52.0,59,29.98,10.0,NNW,9.2,-,N/A,,Overcast,340,2013-05-06 23:54:00
7:54 PM,64.4,53.6,68,29.99,10.0,NNW,6.9,-,N/A,,Overcast,330,2013-05-07 00:54:00
8:54 PM,64.0,55.0,73,29.99,10.0,NW,5.8,-,N/A,,Overcast,320,2013-05-07 01:54:00
9:54 PM,62.1,54.0,75,30.01,10.0,NNW,5.8,-,N/A,,Overcast,330,2013-05-07 02:54:00
10:54 PM,61.0,53.1,75,30.01,10.0,WNW,5.8,-,N/A,,Overcast,300,2013-05-07 03:54:00
11:54 PM,60.1,54.0,80,30.02,10.0,WNW,8.1,-,N/A,,Mostly Cloudy,290,2013-05-07 04:54:00